When you browse on this site, cookies collect data to enhance your experience and personalize the content and advertising you see.
Visit our Privacy Policy to learn more. By continuing to use the site, you agree to this use of cookies and data.
  • In Hungary
  • List of Countries
  • For 7 days
  • Water Temperature
  • Satellite Maps
  • Weather Map
  • News
  • Weather Widgets
  • user-avatar
    Login

    Hourly Weather Tulsa

    Today, 21 February, Thursday

    Time Temperature Precipitation Wind Pressure Humidity
    00:00 +2°C° 0 mm 2 mps 744 mmHg 88%
    01:00 +2°C° 0 mm 2 mps 744 mmHg 87%
    02:00 +2°C° 0 mm 2 mps 744 mmHg 85%
    03:00 +1°C° 0 mm 3 mps 744 mmHg 84%
    04:00 +1°C° 0 mm 3 mps 744 mmHg 84%
    05:00 +1°C° 0 mm 3 mps 744 mmHg 84%
    06:00 +2°C° 0 mm 3 mps 744 mmHg 83%
    07:00 +2°C° 0 mm 3 mps 744 mmHg 79%
    08:00 +3°C° 0 mm 4 mps 744 mmHg 76%
    09:00 +4°C° 0 mm 4 mps 745 mmHg 72%
    10:00 +6°C° 0 mm 5 mps 745 mmHg 65%
    11:00 +8°C° 0 mm 5 mps 745 mmHg 57%
    12:00 +10°C° 0 mm 6 mps 745 mmHg 50%
    13:00 +10°C° 0 mm 6 mps 744 mmHg 50%
    14:00 +11°C° 0 mm 6 mps 744 mmHg 49%
    15:00 +11°C° 0 mm 6 mps 743 mmHg 48%
    16:00 +10°C° 0 mm 5 mps 743 mmHg 55%
    17:00 +9°C° 0 mm 5 mps 743 mmHg 61%
    18:00 +8°C° 0 mm 5 mps 743 mmHg 68%
    19:00 +7°C° 0 mm 4 mps 744 mmHg 72%
    20:00 +6°C° 0 mm 4 mps 744 mmHg 77%
    21:00 +5°C° 0 mm 3 mps 745 mmHg 81%
    22:00 +5°C° 0 mm 3 mps 745 mmHg 83%
    23:00 +4°C° 0 mm 3 mps 745 mmHg 84%

    Tomorrow, 22 February, Friday

    Time Temperature Precipitation Wind Pressure Humidity
    00:00 +4°C° 0 mm 3 mps 745 mmHg 86%
    01:00 +4°C° 0 mm 3 mps 745 mmHg 86%
    02:00 +5°C° 0 mm 3 mps 745 mmHg 86%
    03:00 +5°C° 0 mm 3 mps 745 mmHg 87%
    04:00 +5°C° 0 mm 3 mps 745 mmHg 88%
    05:00 +5°C° 0 mm 3 mps 745 mmHg 89%
    06:00 +6°C° 0 mm 2 mps 745 mmHg 90%
    07:00 +6°C° 0 mm 2 mps 745 mmHg 90%
    08:00 +7°C° 0 mm 2 mps 745 mmHg 90%
    09:00 +7°C° 0 mm 2 mps 746 mmHg 90%
    10:00 +8°C° 0 mm 2 mps 745 mmHg 88%
    11:00 +8°C° 0 mm 3 mps 745 mmHg 86%
    12:00 +9°C° 0 mm 3 mps 745 mmHg 84%
    13:00 +10°C° 0 mm 3 mps 744 mmHg 85%
    14:00 +10°C° 0 mm 3 mps 743 mmHg 85%
    15:00 +10°C° 0 mm 3 mps 743 mmHg 85%
    16:00 +10°C° 0.1 mm 3 mps 742 mmHg 87%
    17:00 +10°C° 0.1 mm 3 mps 742 mmHg 89%
    18:00 +10°C° 0.1 mm 3 mps 742 mmHg 91%
    19:00 +11°C° 0.4 mm 3 mps 741 mmHg 92%
    20:00 +11°C° 0.4 mm 3 mps 741 mmHg 94%
    21:00 +11°C° 0.4 mm 3 mps 741 mmHg 96%
    22:00 +11°C° 0.1 mm 3 mps 740 mmHg 96%
    23:00 +11°C° 0.1 mm 3 mps 740 mmHg 96%

    Day after tomorrow, 23 February, Saturday

    Time Temperature Precipitation Wind Pressure Humidity
    00:00 +11°C° 0.1 mm 4 mps 740 mmHg 96%
    01:00 +11°C° 0 mm 4 mps 739 mmHg 96%
    02:00 +12°C° 0 mm 4 mps 738 mmHg 96%
    03:00 +12°C° 0 mm 5 mps 737 mmHg 96%
    04:00 +12°C° 0.1 mm 5 mps 736 mmHg 96%
    05:00 +13°C° 0.1 mm 5 mps 736 mmHg 96%
    06:00 +13°C° 0.1 mm 5 mps 735 mmHg 96%
    07:00 +14°C° 1.2 mm 6 mps 734 mmHg 95%
    08:00 +14°C° 1.2 mm 6 mps 733 mmHg 94%
    09:00 +15°C° 1.2 mm 7 mps 732 mmHg 92%
    10:00 +15°C° 0.1 mm 9 mps 732 mmHg 73%
    11:00 +16°C° 0.1 mm 11 mps 732 mmHg 53%
    12:00 +15°C° 0.1 mm 13 mps 732 mmHg 33%
    13:00 +15°C° 0 mm 13 mps 731 mmHg 32%
    14:00 +17°C° 0 mm 14 mps 730 mmHg 31%
    15:00 +18°C° 0 mm 14 mps 730 mmHg 29%
    16:00 +14°C° 0 mm 13 mps 730 mmHg 37%
    17:00 +12°C° 0 mm 13 mps 731 mmHg 45%
    18:00 +9°C° 0 mm 13 mps 732 mmHg 53%
    19:00 +8°C° 0 mm 12 mps 735 mmHg 55%
    20:00 +5°C° 0 mm 12 mps 737 mmHg 56%
    21:00 +4°C° 0 mm 12 mps 739 mmHg 57%
    22:00 +4°C° 0 mm 11 mps 740 mmHg 57%
    23:00 +3°C° 0 mm 10 mps 741 mmHg 57%

    24 February, Sunday

    Time Temperature Precipitation Wind Pressure Humidity
    00:00 +3°C° 0 mm 9 mps 743 mmHg 57%
    01:00 +2°C° 0 mm 8 mps 744 mmHg 54%
    02:00 +2°C° 0 mm 7 mps 744 mmHg 52%
    03:00 +2°C° 0 mm 6 mps 745 mmHg 49%
    04:00 +1°C° 0 mm 5 mps 746 mmHg 51%
    05:00 +1°C° 0 mm 5 mps 747 mmHg 52%
    06:00 +1°C° 0 mm 4 mps 748 mmHg 54%
    07:00 +1°C° 0 mm 4 mps 748 mmHg 52%
    08:00 +3°C° 0 mm 4 mps 749 mmHg 51%
    09:00 +4°C° 0 mm 4 mps 750 mmHg 49%
    10:00 +6°C° 0 mm 4 mps 750 mmHg 44%
    11:00 +7°C° 0 mm 4 mps 750 mmHg 40%
    12:00 +10°C° 0 mm 3 mps 751 mmHg 35%
    13:00 +11°C° 0 mm 3 mps 750 mmHg 33%
    14:00 +12°C° 0 mm 3 mps 750 mmHg 31%
    15:00 +13°C° 0 mm 3 mps 750 mmHg 30%
    16:00 +13°C° 0 mm 2 mps 750 mmHg 33%
    17:00 +12°C° 0 mm 2 mps 750 mmHg 37%
    18:00 +11°C° 0 mm 1 mps 750 mmHg 40%
    19:00 +9°C° 0 mm 2 mps 751 mmHg 44%
    20:00 +8°C° 0 mm 2 mps 751 mmHg 47%
    21:00 +7°C° 0 mm 2 mps 752 mmHg 51%
    22:00 +6°C° 0 mm 2 mps 752 mmHg 54%
    23:00 +5°C° 0 mm 3 mps 752 mmHg 58%

    25 February, Monday

    Time Temperature Precipitation Wind Pressure Humidity
    00:00 +4°C° 0 mm 3 mps 752 mmHg 62%
    01:00 +3°C° 0 mm 3 mps 752 mmHg 64%
    02:00 +3°C° 0 mm 3 mps 752 mmHg 66%
    03:00 +2°C° 0 mm 3 mps 752 mmHg 68%
    04:00 +2°C° 0 mm 3 mps 752 mmHg 69%
    05:00 +2°C° 0 mm 3 mps 752 mmHg 71%
    06:00 +2°C° 0 mm 3 mps 752 mmHg 72%
    07:00 +3°C° 0 mm 3 mps 752 mmHg 68%
    08:00 +4°C° 0 mm 3 mps 752 mmHg 65%
    09:00 +5°C° 0 mm 4 mps 752 mmHg 61%
    10:00 +7°C° 0 mm 5 mps 751 mmHg 54%
    11:00 +9°C° 0 mm 6 mps 751 mmHg 47%
    12:00 +12°C° 0 mm 7 mps 750 mmHg 40%
    13:00 +14°C° 0 mm 7 mps 750 mmHg 39%
    14:00 +14°C° 0 mm 7 mps 749 mmHg 38%
    15:00 +15°C° 0 mm 7 mps 748 mmHg 37%
    16:00 +14°C° 0 mm 6 mps 748 mmHg 42%
    17:00 +13°C° 0 mm 5 mps 747 mmHg 47%
    18:00 +12°C° 0 mm 5 mps 747 mmHg 52%
    19:00 +12°C° 0 mm 5 mps 747 mmHg 56%
    20:00 +10°C° 0 mm 5 mps 748 mmHg 59%
    21:00 +9°C° 0 mm 5 mps 748 mmHg 63%
    22:00 +8°C° 0 mm 5 mps 748 mmHg 65%
    23:00 +8°C° 0 mm 5 mps 747 mmHg 68%

    26 February, Tuesday

    Time Temperature Precipitation Wind Pressure Humidity
    00:00 +7°C° 0 mm 5 mps 747 mmHg 70%
    01:00 +7°C° 0 mm 5 mps 747 mmHg 70%
    02:00 +7°C° 0 mm 6 mps 747 mmHg 70%
    03:00 +7°C° 0 mm 6 mps 746 mmHg 70%
    04:00 +7°C° 0 mm 6 mps 746 mmHg 72%
    05:00 +5°C° 0 mm 6 mps 746 mmHg 73%
    06:00 +5°C° 0 mm 6 mps 746 mmHg 74%
    07:00 +7°C° 0 mm 6 mps 746 mmHg 73%
    08:00 +8°C° 0 mm 7 mps 746 mmHg 71%
    09:00 +9°C° 0 mm 7 mps 746 mmHg 69%
    10:00 +11°C° 0 mm 8 mps 745 mmHg 68%
    11:00 +13°C° 0 mm 8 mps 745 mmHg 67%
    12:00 +16°C° 0 mm 8 mps 745 mmHg 66%
    13:00 +15°C° 0 mm 8 mps 744 mmHg 68%
    14:00 +15°C° 0 mm 7 mps 744 mmHg 71%
    15:00 +14°C° 0 mm 7 mps 743 mmHg 73%
    16:00 +14°C° 0 mm 6 mps 743 mmHg 75%
    17:00 +13°C° 0 mm 6 mps 743 mmHg 77%
    18:00 +13°C° 0 mm 5 mps 743 mmHg 79%
    19:00 +13°C° 0 mm 5 mps 743 mmHg 81%
    20:00 +12°C° 0 mm 5 mps 743 mmHg 83%
    21:00 +12°C° 0 mm 4 mps 743 mmHg 85%
    22:00 +11°C° 0 mm 4 mps 743 mmHg 88%
    23:00 +11°C° 0 mm 3 mps 743 mmHg 91%
    Show more